[[{"header":{"parameterUnit":"m.s-1","parameterCategory":1,"la1":30.2992,"la2":30.254,"lo1":-89.0895,"lo2":-89.0443,"dy":0.0025,"dx":0.0025,"nx":19,"ny":19,"refTime":"2026-05-12T21:00:00:Z","depth":0,"parameterNumber":2,"parameterNumberName":"U-component_of_WINDS"},"data":[0,0,0,0.3936,0.3936,0.3949,0.3949,0.3958,0.3958,0,0,0,0,0,0,0,0,0,0,0,0.3929,0.3929,0.3936,0.3936,0.3949,0.3949,0.3958,0.3958,0,0,0,0,0,0,0,0,0,0,0,0.3929,0.3929,0.3929,0.3936,0.3949,0.3949,0.3958,0.3951,0,0,0,0,0,0,0,0,0,0,0.394,0.393,0.3929,0.3929,0.3937,0.3949,0.3949,0.3951,0.3952,0.395,0,0.3948,0,0.3953,0.3959,0.3959,0,0,0,0.3939,0.3929,0.3936,0.3929,0.3937,0.3949,0.3944,0.3951,0.3952,0.3951,0.3948,0.3949,0.3954,0.3959,0.3959,0.3943,0.3943,0,0,0.3938,0.3929,0.3935,0.3936,0.3935,0.3944,0.3944,0.3952,0.3948,0.3948,0.3949,0.3954,0.3959,0.3959,0.3943,0.3943,0,0,0,0.3935,0.3928,0.3935,0.3936,0.3939,0.3944,0.3945,0.3948,0.3951,0.3949,0.3954,0.3959,0.3959,0.3944,0.3943,0.3925,0,0,0,0.3934,0.3926,0.3935,0.3929,0.3938,0.3943,0.394,0.395,0.3951,0.3954,0.3959,0.3959,0.3944,0.3943,0.3926,0.3917,0,0,0,0.3929,0.3926,0.3926,0.3929,0.3934,0.3944,0.3947,0.3951,0.3954,0.3959,0.3959,0.3944,0.3944,0.3927,0.3919,0.391,0,0,0,0.3921,0.3909,0.3926,0.3915,0.3934,0.3933,0.3947,0.3947,0.3949,0.3959,0.3944,0.3943,0.3927,0.392,0.3911,0.3901,0.3896,0,0,0.3901,0.3906,0.3901,0.3916,0.391,0.3932,0.3923,0.3932,0.3941,0.3942,0.3942,0.3926,0.3919,0.3911,0.3874,0.387,0,0,0,0.3891,0.3887,0.3887,0.3889,0.3897,0.3904,0.3916,0.392,0.3922,0.394,0.3921,0.3918,0.3913,0.3908,0.3905,0.3901,0.3941,0.3941,0.3941,0.3848,0.3861,0.3852,0.3867,0.3869,0.3883,0.3885,0.3893,0.3904,0.39,0.3899,0.3876,0.387,0.3868,0.3864,0.3896,0.3896,0.3896,0.3896,0.3819,0.3814,0.3832,0.383,0.3844,0.3842,0.3855,0.3864,0.3864,0.3877,0.3873,0.3885,0.3863,0.386,0.3895,0.3895,0.3895,0.3895,0.3895,0.379,0.379,0.3797,0.3802,0.3804,0.382,0.382,0.3832,0.3844,0.3841,0.3842,0.3842,0.3843,0.3841,0.3841,0.3841,0.3841,0.3841,0.3841,0.3758,0.3766,0.3764,0.3774,0.3777,0.3783,0.3799,0.3803,0.381,0.3819,0.3819,0.3831,0.3859,0.3865,0.3839,0.384,0.384,0.384,0.384,0.3721,0.3732,0.3729,0.3733,0.3746,0.3747,0.3765,0.3772,0.3777,0.3776,0.379,0.3809,0.3815,0.3818,0.3823,0.3787,0.3787,0.3787,0.3787,0.3696,0.3701,0.3702,0.3708,0.3714,0.373,0.3727,0.374,0.3754,0.3758,0.3766,0.3774,0.3776,0.3781,0.3785,0.3789,0.3746,0.3746,0.3746,0.3673,0.368,0.3675,0.3691,0.3702,0.3712,0.3709,0.3714,0.3733,0.3745,0.3761,0.3763,0.3777,0.3781,0.3791,0.3796,0.3805,0,0]},{"header":{"parameterUnit":"m.s-1","parameterCategory":1,"la1":30.2992,"la2":30.254,"lo1":-89.0895,"lo2":-89.0443,"dy":0.0025,"dx":0.0025,"nx":19,"ny":19,"refTime":"2026-05-12T21:00:00:Z","depth":0,"parameterNumber":3,"parameterNumberName":"V-component_of_WINDS"},"data":[0,0,0,-4.005,-4.0053,-4.0205,-4.0205,-4.0392,-4.0394,0,0,0,0,0,0,0,0,0,0,0,-4.0003,-4.0005,-4.005,-4.0054,-4.0205,-4.0205,-4.0392,-4.0394,0,0,0,0,0,0,0,0,0,0,0,-4.0003,-4.0004,-4.0006,-4.0054,-4.0205,-4.0205,-4.0391,-4.0279,0,0,0,0,0,0,0,0,0,0,-4.0133,-4.0089,-4.0004,-4.0006,-4.0055,-4.0204,-4.0205,-4.0273,-4.0286,-4.0321,0,-4.0355,0,-4.0377,-4.0406,-4.0406,0,0,0,-4.0054,-4.0078,-4.0121,-4.0006,-4.0056,-4.0204,-4.0137,-4.028,-4.0294,-4.0338,-4.0357,-4.0364,-4.038,-4.0407,-4.0408,-4.0619,-4.062,0,0,-4.0045,-4.0029,-4.0112,-4.013,-4.011,-4.0132,-4.0141,-4.0289,-4.0308,-4.0358,-4.0369,-4.0383,-4.0408,-4.041,-4.0618,-4.0619,0,0,0,-4.0021,-4.0023,-4.0062,-4.0123,-4.015,-4.0136,-4.0147,-4.0302,-4.0316,-4.0371,-4.0386,-4.0409,-4.0412,-4.0617,-4.0618,-4.0653,0,0,0,-4.0016,-4.0009,-4.0059,-4.005,-4.0148,-4.0229,-4.0156,-4.0306,-4.0323,-4.0385,-4.0409,-4.0413,-4.0616,-4.0618,-4.0649,-4.0671,0,0,0,-3.9994,-4.0006,-4.0028,-4.0049,-4.0114,-4.0227,-4.0249,-4.031,-4.0332,-4.0407,-4.0414,-4.0615,-4.0617,-4.0647,-4.0667,-4.0724,0,0,0,-3.9965,-4.0054,-4.0028,-4.0133,-4.0112,-4.0247,-4.0249,-4.0349,-4.0417,-4.041,-4.0616,-4.0618,-4.0646,-4.0664,-4.0721,-4.077,-4.0789,0,0,-4.0067,-4.0065,-4.0128,-4.011,-4.0246,-4.0225,-4.0365,-4.0441,-4.0461,-4.0564,-4.057,-4.0651,-4.0666,-4.0723,-4.0898,-4.0913,0,0,0,-4.0155,-4.0201,-4.024,-4.0306,-4.0369,-4.0424,-4.0481,-4.0509,-4.0598,-4.0512,-4.0686,-4.0696,-4.073,-4.0754,-4.0767,-4.0798,-4.0628,-4.0628,-4.0628,-4.0277,-4.0301,-4.0408,-4.0451,-4.0514,-4.0574,-4.0627,-4.0675,-4.0678,-4.0719,-4.075,-4.0853,-4.0881,-4.0891,-4.0923,-4.0777,-4.0777,-4.0777,-4.0777,-4.0431,-4.0499,-4.0505,-4.0611,-4.0635,-4.0723,-4.0783,-4.0783,-4.0867,-4.0831,-4.0862,-4.0822,-4.0907,-4.0936,-4.078,-4.0779,-4.0779,-4.0779,-4.0779,-4.0514,-4.0551,-4.0587,-4.0687,-4.076,-4.0799,-4.0882,-4.0899,-4.0916,-4.0947,-4.0983,-4.0983,-4.0985,-4.0963,-4.0963,-4.0964,-4.0964,-4.0964,-4.0964,-4.0586,-4.0626,-4.0695,-4.0771,-4.0816,-4.0879,-4.094,-4.0985,-4.1039,-4.1046,-4.1046,-4.1046,-4.0911,-4.0877,-4.097,-4.0969,-4.0968,-4.0968,-4.0968,-4.0735,-4.0706,-4.0812,-4.0859,-4.095,-4.1023,-4.1045,-4.1136,-4.1175,-4.1215,-4.1209,-4.1106,-4.1103,-4.1094,-4.1066,-4.1203,-4.1203,-4.1203,-4.1203,-4.0807,-4.0808,-4.0923,-4.0997,-4.107,-4.1103,-4.1221,-4.127,-4.1314,-4.134,-4.1323,-4.1287,-4.1276,-4.1281,-4.1267,-4.1242,-4.142,-4.142,-4.142,-4.09,-4.0911,-4.1009,-4.1057,-4.113,-4.1192,-4.1304,-4.1387,-4.1431,-4.1429,-4.1361,-4.1352,-4.1295,-4.1275,-4.1272,-4.125,-4.1204,0,0]}]]